Regional Weather Roundup
Issued by NWS Nashville, TN

Current Version | Previous Version | Text Only | Print | Product List | Glossary On
Versions: 1 2 3 4 5 6 7 8 9 10 11 12 13 14 15 16 17 18 19 20 21 22 23 24 25 26 27
000
ASUS44 KOHX 231610
RWROHX
MIDDLE TENNESSEE HOURLY WEATHER ROUNDUP
NATIONAL WEATHER SERVICE NASHVILLE TN
1000 AM CST FRI FEB 23 2018

NOTE: "FAIR" INDICATES FEW OR NO CLOUDS BELOW 12,000 FEET WITH
NO SIGNIFICANT WEATHER AND/OR OBSTRUCTIONS TO VISIBILITY.

* THESE REPORTS ARE NOT UNDER NWS QUALITY CONTROL AND MAY NOT
  REPORT WEATHER SUCH AS PRECIPITATION AND FOG.


TNZ005>011-023>034-057-059-062>066-078-080-231700
...NORTHERN MIDDLE TENNESSEE...

CITY           SKY/WX    TMP DP  RH WIND       PRES   REMARKS
CLARKSVILLE    CLOUDY    66  60  81 SW5       30.31S
CROSSVILLE     PTSUNNY   68  59  73 SW8       30.40R
GALLATIN       MOSUNNY   70  63  78 SW8       30.36S
NASHVILLE      PTSUNNY   73  61  65 SW9       30.34S
PORTLAND       PTSUNNY   70  63  78 SW12      30.33R
SMYRNA         MOSUNNY   70  61  73 SW9       30.36R
SPARTA         CLOUDY    70  63  78 SW8       30.37S
SPRINGFIELD    PTSUNNY   68  63  83 SW14G21   30.32R
WEST NASHVILLE MOSUNNY   72  61  68 SW18G25   30.31F
$$
TNZ056-058-060-061-075>077-079-093>097-231700
...SOUTHERN MIDDLE TENNESSEE...

CITY           SKY/WX    TMP DP  RH WIND       PRES   REMARKS
COLUMBIA       CLOUDY    72  66  83 SW12      30.32F
FAYETTEVILLE   PTSUNNY   72  61  68 SW15      30.37S
MCMINNVILLE    CLOUDY    72  61  68 SW10      30.37R
PULASKI        CLOUDY    72  63  73 W8G16     30.36S
SHELBYVILLE    PTSUNNY   70  63  78 SW12      30.37R
TULLAHOMA      PTSUNNY   70  61  73 SW8G18    30.37S
WINCHESTER     CLOUDY    73  61  64 S9        30.38R
$$


...KEY TO REMARKS...
VSB - VISIBILITY IN MILES
WCI - WIND CHILL INDEX
HX  - HEAT INDEX





USA.gov is the U.S. government's official web portal to all federal, state and local government web resources and services.